Year,Month,Day,Hour,Minute,Value (Times are PST for temperature in C)
2020,01,30,00,00,3.40
2020,01,30,00,01,3.40
2020,01,30,00,02,3.40
2020,01,30,00,03,3.40
2020,01,30,00,04,3.40
2020,01,30,00,05,3.40
2020,01,30,00,06,3.50
2020,01,30,00,07,3.50
2020,01,30,00,08,3.40
2020,01,30,00,09,3.50
2020,01,30,00,10,3.50
2020,01,30,00,11,3.50
2020,01,30,00,12,3.50
2020,01,30,00,13,3.50
2020,01,30,00,14,3.50
2020,01,30,00,15,3.50
2020,01,30,00,16,3.50
2020,01,30,00,17,3.50
2020,01,30,00,18,3.50
2020,01,30,00,19,3.60
2020,01,30,00,20,3.60
2020,01,30,00,21,3.60
2020,01,30,00,22,3.60
2020,01,30,00,23,3.60
2020,01,30,00,24,3.60
2020,01,30,00,25,3.60
2020,01,30,00,26,3.60
2020,01,30,00,27,3.70
2020,01,30,00,28,3.70
2020,01,30,00,29,3.70
2020,01,30,00,30,3.70
2020,01,30,00,31,3.70
2020,01,30,00,32,3.70
2020,01,30,00,33,3.70
2020,01,30,00,34,3.70
2020,01,30,00,35,3.70
2020,01,30,00,36,3.70
2020,01,30,00,37,3.70
2020,01,30,00,38,3.70
2020,01,30,00,39,3.70
2020,01,30,00,40,3.70
2020,01,30,00,41,3.70
2020,01,30,00,42,3.70
2020,01,30,00,43,3.70
2020,01,30,00,44,3.70
2020,01,30,00,45,3.70
2020,01,30,00,46,3.70
2020,01,30,00,47,3.70
2020,01,30,00,48,3.70
2020,01,30,00,49,3.70
2020,01,30,00,50,3.70
2020,01,30,00,51,3.70
2020,01,30,00,52,3.70
2020,01,30,00,53,3.70
2020,01,30,00,54,3.70
2020,01,30,00,55,3.70
2020,01,30,00,56,3.70
2020,01,30,00,57,3.70
2020,01,30,00,58,3.80
2020,01,30,00,59,3.80
2020,01,30,01,00,3.80
2020,01,30,01,01,3.80
2020,01,30,01,02,3.80
2020,01,30,01,03,3.80
2020,01,30,01,04,3.80
2020,01,30,01,05,3.80
2020,01,30,01,06,3.80
2020,01,30,01,07,3.80
2020,01,30,01,08,3.80
2020,01,30,01,09,3.90
2020,01,30,01,10,3.90
2020,01,30,01,11,3.90
2020,01,30,01,12,3.90
2020,01,30,01,13,3.90
2020,01,30,01,14,3.90
2020,01,30,01,15,3.90
2020,01,30,01,16,3.90
2020,01,30,01,17,3.90
2020,01,30,01,18,3.90
2020,01,30,01,19,3.90
2020,01,30,01,20,4.00
2020,01,30,01,21,4.00
2020,01,30,01,22,4.00
2020,01,30,01,23,4.00
2020,01,30,01,24,4.00
2020,01,30,01,25,4.00
2020,01,30,01,26,4.00
2020,01,30,01,27,4.10
2020,01,30,01,28,4.10
2020,01,30,01,29,4.10
2020,01,30,01,30,4.10
2020,01,30,01,31,4.10
2020,01,30,01,32,4.10
2020,01,30,01,33,4.10
2020,01,30,01,34,4.10
2020,01,30,01,35,4.10
2020,01,30,01,36,4.10
2020,01,30,01,37,4.10
2020,01,30,01,38,4.10
2020,01,30,01,39,4.10
2020,01,30,01,40,4.10
2020,01,30,01,41,4.10
2020,01,30,01,42,4.10
2020,01,30,01,43,4.10
2020,01,30,01,44,4.10
2020,01,30,01,45,4.10
2020,01,30,01,46,4.10
2020,01,30,01,47,4.10
2020,01,30,01,48,4.10
2020,01,30,01,49,4.10
2020,01,30,01,50,4.10
2020,01,30,01,51,4.10
2020,01,30,01,52,4.10
2020,01,30,01,53,4.10
2020,01,30,01,54,4.10
2020,01,30,01,55,4.10
2020,01,30,01,56,4.10
2020,01,30,01,57,4.10
2020,01,30,01,58,4.10
2020,01,30,01,59,4.10
2020,01,30,02,00,4.10
2020,01,30,02,01,4.10
2020,01,30,02,02,4.10
2020,01,30,02,03,4.20
2020,01,30,02,04,4.20
2020,01,30,02,05,4.20
2020,01,30,02,06,4.20
2020,01,30,02,07,4.20
2020,01,30,02,08,4.20
2020,01,30,02,09,4.20
2020,01,30,02,10,4.20
2020,01,30,02,11,4.20
2020,01,30,02,12,4.20
2020,01,30,02,13,4.20
2020,01,30,02,14,4.20
2020,01,30,02,15,4.20
2020,01,30,02,16,4.20
2020,01,30,02,17,4.20
2020,01,30,02,18,4.20
2020,01,30,02,19,4.20
2020,01,30,02,20,4.20
2020,01,30,02,21,4.20
2020,01,30,02,22,4.20
2020,01,30,02,23,4.20
2020,01,30,02,24,4.30
2020,01,30,02,25,4.30
2020,01,30,02,26,4.30
2020,01,30,02,27,4.30
2020,01,30,02,28,4.30
2020,01,30,02,29,4.30
2020,01,30,02,30,4.30
2020,01,30,02,31,4.30
2020,01,30,02,32,4.30
2020,01,30,02,33,4.30
2020,01,30,02,34,4.30
2020,01,30,02,35,4.30
2020,01,30,02,36,4.20
2020,01,30,02,37,4.30
2020,01,30,02,38,4.20
2020,01,30,02,39,4.30
2020,01,30,02,40,4.30
2020,01,30,02,41,4.30
2020,01,30,02,42,4.30
2020,01,30,02,43,4.30
2020,01,30,02,44,4.30
2020,01,30,02,45,4.30
2020,01,30,02,46,4.20
2020,01,30,02,47,4.20
2020,01,30,02,48,4.30
2020,01,30,02,49,4.30
2020,01,30,02,50,4.30
2020,01,30,02,51,4.30
2020,01,30,02,52,4.30
2020,01,30,02,53,4.30
2020,01,30,02,54,4.30
2020,01,30,02,55,4.20
2020,01,30,02,56,4.20
2020,01,30,02,57,4.20
2020,01,30,02,58,4.20
2020,01,30,02,59,4.20
2020,01,30,03,00,4.20
2020,01,30,03,01,4.20
2020,01,30,03,02,4.20
2020,01,30,03,03,4.20
2020,01,30,03,04,4.20
2020,01,30,03,05,4.20
2020,01,30,03,06,4.20
2020,01,30,03,07,4.20
2020,01,30,03,08,4.20
2020,01,30,03,09,4.20
2020,01,30,03,10,4.20
2020,01,30,03,11,4.20
2020,01,30,03,12,4.20
2020,01,30,03,13,4.20
2020,01,30,03,14,4.20
2020,01,30,03,15,4.20
2020,01,30,03,16,4.20
2020,01,30,03,17,4.20
2020,01,30,03,18,4.20
2020,01,30,03,19,4.20
2020,01,30,03,20,4.20
2020,01,30,03,21,4.20
2020,01,30,03,22,4.20
2020,01,30,03,23,4.20
2020,01,30,03,24,4.20
2020,01,30,03,25,4.30
2020,01,30,03,26,4.30
2020,01,30,03,27,4.30
2020,01,30,03,28,4.30
2020,01,30,03,29,4.30
2020,01,30,03,30,4.30
2020,01,30,03,31,4.30
2020,01,30,03,32,4.30
2020,01,30,03,33,4.30
2020,01,30,03,34,4.30
2020,01,30,03,35,4.30
2020,01,30,03,36,4.30
2020,01,30,03,37,4.30
2020,01,30,03,38,4.30
2020,01,30,03,39,4.30
2020,01,30,03,40,4.30
2020,01,30,03,41,4.40
2020,01,30,03,42,4.40
2020,01,30,03,43,4.40
2020,01,30,03,44,4.40
2020,01,30,03,45,4.40
2020,01,30,03,46,4.40
2020,01,30,03,47,4.40
2020,01,30,03,48,4.40
2020,01,30,03,49,4.40
2020,01,30,03,50,4.50
2020,01,30,03,51,4.50
2020,01,30,03,52,4.50
2020,01,30,03,53,4.50
2020,01,30,03,54,4.50
2020,01,30,03,55,4.50
2020,01,30,03,56,4.40
2020,01,30,03,57,4.50
2020,01,30,03,58,4.40
2020,01,30,03,59,4.40
2020,01,30,04,00,4.40
2020,01,30,04,01,4.40
2020,01,30,04,02,4.40
2020,01,30,04,03,4.40
2020,01,30,04,04,4.40
2020,01,30,04,05,4.40
2020,01,30,04,06,4.40
2020,01,30,04,07,4.40
2020,01,30,04,08,4.40
2020,01,30,04,09,4.40
2020,01,30,04,10,4.40
2020,01,30,04,11,4.40
2020,01,30,04,12,4.40
2020,01,30,04,13,4.40
2020,01,30,04,14,4.40
2020,01,30,04,15,4.40
2020,01,30,04,16,4.40
2020,01,30,04,17,4.40
2020,01,30,04,18,4.40
2020,01,30,04,19,4.40
2020,01,30,04,20,4.40
2020,01,30,04,21,4.40
2020,01,30,04,22,4.40
2020,01,30,04,23,4.40
2020,01,30,04,24,4.40
2020,01,30,04,25,4.40
2020,01,30,04,26,4.40
2020,01,30,04,27,4.40
2020,01,30,04,28,4.40
2020,01,30,04,29,4.40
2020,01,30,04,30,4.40
2020,01,30,04,31,4.40
2020,01,30,04,32,4.40
2020,01,30,04,33,4.40
2020,01,30,04,34,4.40
2020,01,30,04,35,4.40
2020,01,30,04,36,4.40
2020,01,30,04,37,4.40
2020,01,30,04,38,4.40
2020,01,30,04,39,4.40
2020,01,30,04,40,4.40
2020,01,30,04,41,4.40
2020,01,30,04,42,4.40
2020,01,30,04,43,4.40
2020,01,30,04,44,4.50
2020,01,30,04,45,4.40
2020,01,30,04,46,4.40
2020,01,30,04,47,4.40
2020,01,30,04,48,4.40
2020,01,30,04,49,4.40
2020,01,30,04,50,4.40
2020,01,30,04,51,4.40
2020,01,30,04,52,4.40
2020,01,30,04,53,4.40
2020,01,30,04,54,4.40
2020,01,30,04,55,4.40
2020,01,30,04,56,4.40
2020,01,30,04,57,4.40
2020,01,30,04,58,4.40
2020,01,30,04,59,4.50
2020,01,30,05,00,4.50
2020,01,30,05,01,4.40
2020,01,30,05,02,4.40
2020,01,30,05,03,4.40
2020,01,30,05,04,4.40
2020,01,30,05,05,4.40
2020,01,30,05,06,4.40
2020,01,30,05,07,4.40
2020,01,30,05,08,4.40
2020,01,30,05,09,4.40
2020,01,30,05,10,4.40
2020,01,30,05,11,4.50
2020,01,30,05,12,4.50
2020,01,30,05,13,4.50
2020,01,30,05,14,4.50
2020,01,30,05,15,4.50
2020,01,30,05,16,4.50
2020,01,30,05,17,4.50
2020,01,30,05,18,4.50
2020,01,30,05,19,4.50
2020,01,30,05,20,4.50
2020,01,30,05,21,4.50
2020,01,30,05,22,4.50
2020,01,30,05,23,4.50
2020,01,30,05,24,4.50
2020,01,30,05,25,4.50
2020,01,30,05,26,4.50
2020,01,30,05,27,4.50
2020,01,30,05,28,4.40
2020,01,30,05,29,4.40
2020,01,30,05,30,4.40
2020,01,30,05,31,4.40
2020,01,30,05,32,4.40
2020,01,30,05,33,4.50
2020,01,30,05,34,4.50
2020,01,30,05,35,4.50
2020,01,30,05,36,4.50
2020,01,30,05,37,4.50
2020,01,30,05,38,4.50
2020,01,30,05,39,4.50
2020,01,30,05,40,4.50
2020,01,30,05,41,4.50
2020,01,30,05,42,4.50
2020,01,30,05,43,4.50
2020,01,30,05,44,4.50
2020,01,30,05,45,4.50
2020,01,30,05,46,4.60
2020,01,30,05,47,4.60
2020,01,30,05,48,4.60
2020,01,30,05,49,4.60
2020,01,30,05,50,4.60
2020,01,30,05,51,4.60
2020,01,30,05,52,4.60
2020,01,30,05,53,4.70
2020,01,30,05,54,4.70
2020,01,30,05,55,4.70
2020,01,30,05,56,4.70
2020,01,30,05,57,4.70
2020,01,30,05,58,4.80
2020,01,30,05,59,4.80
2020,01,30,06,00,4.80
2020,01,30,06,01,4.80
2020,01,30,06,02,4.90
2020,01,30,06,03,4.90
2020,01,30,06,04,4.90
2020,01,30,06,05,4.90
2020,01,30,06,06,5.00
2020,01,30,06,07,5.10
2020,01,30,06,08,5.10
2020,01,30,06,09,5.20
2020,01,30,06,10,5.20
2020,01,30,06,11,5.30
2020,01,30,06,12,5.30
2020,01,30,06,13,5.30
2020,01,30,06,14,5.30
2020,01,30,06,15,5.40
2020,01,30,06,16,5.40
2020,01,30,06,17,5.50
2020,01,30,06,18,5.50
2020,01,30,06,19,5.50
2020,01,30,06,20,5.60
2020,01,30,06,21,5.60
2020,01,30,06,22,5.70
2020,01,30,06,23,5.70
2020,01,30,06,24,5.70
2020,01,30,06,25,5.80
2020,01,30,06,26,5.90
2020,01,30,06,27,5.90
2020,01,30,06,28,6.00
2020,01,30,06,29,6.00
2020,01,30,06,30,6.00
2020,01,30,06,31,6.10
2020,01,30,06,32,6.10
2020,01,30,06,33,6.10
2020,01,30,06,34,6.10
2020,01,30,06,35,6.10
2020,01,30,06,36,6.20
2020,01,30,06,37,6.20
2020,01,30,06,38,6.20
2020,01,30,06,39,6.20
2020,01,30,06,40,6.20
2020,01,30,06,41,6.20
2020,01,30,06,42,6.30
2020,01,30,06,43,6.30
2020,01,30,06,44,6.30
2020,01,30,06,45,6.30
2020,01,30,06,46,6.30
2020,01,30,06,47,6.30
2020,01,30,06,48,6.30
2020,01,30,06,49,6.30
2020,01,30,06,50,6.30
2020,01,30,06,51,6.30
2020,01,30,06,52,6.30
2020,01,30,06,53,6.30
2020,01,30,06,54,6.30
2020,01,30,06,55,6.30
2020,01,30,06,56,6.30
2020,01,30,06,57,6.30
2020,01,30,06,58,6.30
2020,01,30,06,59,6.30
2020,01,30,07,00,6.30
2020,01,30,07,01,6.30
2020,01,30,07,02,6.30
2020,01,30,07,03,6.30
2020,01,30,07,04,6.30
2020,01,30,07,05,6.30
2020,01,30,07,06,6.30
2020,01,30,07,07,6.30
2020,01,30,07,08,6.30
2020,01,30,07,09,6.30
2020,01,30,07,10,6.30
2020,01,30,07,11,6.30
2020,01,30,07,12,6.30
2020,01,30,07,13,6.30
2020,01,30,07,14,6.30
2020,01,30,07,15,6.30
2020,01,30,07,16,6.30
2020,01,30,07,17,6.30
2020,01,30,07,18,6.30
2020,01,30,07,19,6.30
2020,01,30,07,20,6.30
2020,01,30,07,21,6.30
2020,01,30,07,22,6.30
2020,01,30,07,23,6.30
2020,01,30,07,24,6.30
2020,01,30,07,25,6.20
2020,01,30,07,26,6.20
2020,01,30,07,27,6.20
2020,01,30,07,28,6.20
2020,01,30,07,29,6.20
2020,01,30,07,30,6.20
2020,01,30,07,31,6.20
2020,01,30,07,32,6.20
2020,01,30,07,33,6.20
2020,01,30,07,34,6.20
2020,01,30,07,35,6.20
2020,01,30,07,36,6.20
2020,01,30,07,37,6.20
2020,01,30,07,38,6.20
2020,01,30,07,39,6.20
2020,01,30,07,40,6.20
2020,01,30,07,41,6.20
2020,01,30,07,42,6.20
2020,01,30,07,43,6.20
2020,01,30,07,44,6.20
2020,01,30,07,45,6.20
2020,01,30,07,46,6.20
2020,01,30,07,47,6.20
2020,01,30,07,48,6.30
2020,01,30,07,49,6.30
2020,01,30,07,50,6.30
2020,01,30,07,51,6.30
2020,01,30,07,52,6.30
2020,01,30,07,53,6.30
2020,01,30,07,54,6.30
2020,01,30,07,55,6.30
2020,01,30,07,56,6.30
2020,01,30,07,57,6.30
2020,01,30,07,58,6.30
2020,01,30,07,59,6.30
2020,01,30,08,00,6.30
2020,01,30,08,01,6.30
2020,01,30,08,02,6.30
2020,01,30,08,03,6.30
2020,01,30,08,04,6.40
2020,01,30,08,05,6.40
2020,01,30,08,06,6.40
2020,01,30,08,07,6.40
2020,01,30,08,08,6.50
2020,01,30,08,09,6.50
2020,01,30,08,10,6.50
2020,01,30,08,11,6.50
2020,01,30,08,12,6.50
2020,01,30,08,13,6.50
2020,01,30,08,14,6.50
2020,01,30,08,15,6.60
2020,01,30,08,16,6.60
2020,01,30,08,17,6.60
2020,01,30,08,18,6.60
2020,01,30,08,19,6.60
2020,01,30,08,20,6.60
2020,01,30,08,21,6.60
2020,01,30,08,22,6.60
2020,01,30,08,23,6.60
2020,01,30,08,24,6.60
2020,01,30,08,25,6.60
2020,01,30,08,26,6.60
2020,01,30,08,27,6.60
2020,01,30,08,28,6.60
2020,01,30,08,29,6.60
2020,01,30,08,30,6.60
2020,01,30,08,31,6.50
2020,01,30,08,32,6.50
2020,01,30,08,33,6.50
2020,01,30,08,34,6.50
2020,01,30,08,35,6.50
2020,01,30,08,36,6.50
2020,01,30,08,37,6.50
2020,01,30,08,38,6.50
2020,01,30,08,39,6.50
2020,01,30,08,40,6.40
2020,01,30,08,41,6.40
2020,01,30,08,42,6.40
2020,01,30,08,43,6.40
2020,01,30,08,44,6.40
2020,01,30,08,45,6.40
2020,01,30,08,46,6.40
2020,01,30,08,47,6.50
2020,01,30,08,48,6.50
2020,01,30,08,49,6.40
2020,01,30,08,50,6.40
2020,01,30,08,51,6.40
2020,01,30,08,52,6.40
2020,01,30,08,53,6.40
2020,01,30,08,54,6.40
2020,01,30,08,55,6.40
2020,01,30,08,56,6.40
2020,01,30,08,57,6.40
2020,01,30,08,58,6.40
2020,01,30,08,59,6.40
2020,01,30,09,00,6.40
2020,01,30,09,01,6.40
2020,01,30,09,02,6.40
2020,01,30,09,03,6.40
2020,01,30,09,04,6.40
2020,01,30,09,05,6.40
2020,01,30,09,06,6.50
2020,01,30,09,07,6.50
2020,01,30,09,08,6.50
2020,01,30,09,09,6.50
2020,01,30,09,10,6.50
2020,01,30,09,11,6.50
2020,01,30,09,12,6.50
2020,01,30,09,13,6.50
2020,01,30,09,14,6.50
2020,01,30,09,15,6.50
2020,01,30,09,16,6.50
2020,01,30,09,17,6.50
2020,01,30,09,18,6.50
2020,01,30,09,19,6.50
2020,01,30,09,20,6.50
2020,01,30,09,21,6.50
2020,01,30,09,22,6.60
2020,01,30,09,23,6.50
2020,01,30,09,24,6.50
2020,01,30,09,25,6.50
2020,01,30,09,26,6.50
2020,01,30,09,27,6.60
2020,01,30,09,28,6.60
2020,01,30,09,29,6.60
2020,01,30,09,30,6.60
2020,01,30,09,31,6.60
2020,01,30,09,32,6.60
2020,01,30,09,33,6.60
2020,01,30,09,34,6.60
2020,01,30,09,35,6.60
2020,01,30,09,36,6.60
2020,01,30,09,37,6.70
2020,01,30,09,38,6.70
2020,01,30,09,39,6.70
2020,01,30,09,40,6.80
2020,01,30,09,41,6.80
2020,01,30,09,42,6.80
2020,01,30,09,43,6.80
2020,01,30,09,44,6.80
2020,01,30,09,45,6.90
2020,01,30,09,46,6.90
2020,01,30,09,47,6.90
2020,01,30,09,48,6.90
2020,01,30,09,49,7.00
2020,01,30,09,50,7.00
2020,01,30,09,51,7.00
2020,01,30,09,52,7.00
2020,01,30,09,53,7.00
2020,01,30,09,54,7.10
2020,01,30,09,55,7.10
2020,01,30,09,56,7.10
2020,01,30,09,57,7.10
2020,01,30,09,58,7.10
2020,01,30,09,59,7.10
2020,01,30,10,00,7.10
2020,01,30,10,01,7.10
2020,01,30,10,02,7.10
2020,01,30,10,03,7.20
2020,01,30,10,04,7.20
2020,01,30,10,05,7.10
2020,01,30,10,06,7.10
2020,01,30,10,07,7.10
2020,01,30,10,08,7.10
2020,01,30,10,09,7.10
2020,01,30,10,10,7.10
2020,01,30,10,11,7.10
2020,01,30,10,12,7.10
2020,01,30,10,13,7.10
2020,01,30,10,14,7.10
2020,01,30,10,15,7.10
2020,01,30,10,16,7.10
2020,01,30,10,17,7.10
2020,01,30,10,18,7.10
2020,01,30,10,19,7.10
2020,01,30,10,20,7.20
2020,01,30,10,21,7.20
2020,01,30,10,22,7.20
2020,01,30,10,23,7.20
2020,01,30,10,24,7.20
2020,01,30,10,25,7.20
2020,01,30,10,26,7.20
2020,01,30,10,27,7.20
2020,01,30,10,28,7.20
2020,01,30,10,29,7.20
2020,01,30,10,30,7.20
2020,01,30,10,31,7.20
2020,01,30,10,32,7.20
2020,01,30,10,33,7.20
2020,01,30,10,34,7.20
2020,01,30,10,35,7.20
2020,01,30,10,36,7.20
2020,01,30,10,37,7.30
2020,01,30,10,38,7.30
2020,01,30,10,39,7.30
2020,01,30,10,40,7.20
2020,01,30,10,41,7.20
2020,01,30,10,42,7.20
2020,01,30,10,43,7.20
2020,01,30,10,44,7.20
2020,01,30,10,45,7.20
2020,01,30,10,46,7.20
2020,01,30,10,47,7.30
2020,01,30,10,48,7.30
2020,01,30,10,49,7.30
2020,01,30,10,50,7.30
2020,01,30,10,51,7.30
2020,01,30,10,52,7.30
2020,01,30,10,53,7.30
2020,01,30,10,54,7.20
2020,01,30,10,55,7.20
2020,01,30,10,56,7.20
2020,01,30,10,57,7.30
2020,01,30,10,58,7.30
2020,01,30,10,59,7.30
2020,01,30,11,00,7.30
2020,01,30,11,01,7.30
2020,01,30,11,02,7.30
2020,01,30,11,03,7.30
2020,01,30,11,04,7.30
2020,01,30,11,05,7.30
2020,01,30,11,06,7.30
2020,01,30,11,07,7.30
2020,01,30,11,08,7.30
2020,01,30,11,09,7.30
2020,01,30,11,10,7.30
2020,01,30,11,11,7.30
2020,01,30,11,12,7.20
2020,01,30,11,13,7.20
2020,01,30,11,14,7.20
2020,01,30,11,15,7.20
2020,01,30,11,16,7.30
2020,01,30,11,17,7.30
2020,01,30,11,18,7.30
2020,01,30,11,19,7.30
2020,01,30,11,20,7.30
2020,01,30,11,21,7.30
2020,01,30,11,22,7.30
2020,01,30,11,23,7.30
2020,01,30,11,24,7.30
2020,01,30,11,25,7.30
2020,01,30,11,26,7.30
2020,01,30,11,27,7.30
2020,01,30,11,28,7.30
2020,01,30,11,29,7.30
2020,01,30,11,30,7.30
2020,01,30,11,31,7.30
2020,01,30,11,32,7.30
2020,01,30,11,33,7.30
2020,01,30,11,34,7.30
2020,01,30,11,35,7.30
2020,01,30,11,36,7.40
2020,01,30,11,37,7.40
2020,01,30,11,38,7.40
2020,01,30,11,39,7.40
2020,01,30,11,40,7.40
2020,01,30,11,41,7.40
2020,01,30,11,42,7.40
2020,01,30,11,43,7.40
2020,01,30,11,44,7.40
2020,01,30,11,45,7.40
2020,01,30,11,46,7.40
2020,01,30,11,47,7.40
2020,01,30,11,48,7.40
2020,01,30,11,49,7.40
2020,01,30,11,50,7.40
2020,01,30,11,51,7.40
2020,01,30,11,52,7.40
2020,01,30,11,53,7.40
2020,01,30,11,54,7.40
2020,01,30,11,55,7.40
2020,01,30,11,56,7.40
2020,01,30,11,57,7.40
2020,01,30,11,58,7.40
2020,01,30,11,59,7.40
2020,01,30,12,00,7.40
2020,01,30,12,01,7.50
2020,01,30,12,02,7.50
2020,01,30,12,03,7.50
2020,01,30,12,04,7.50
2020,01,30,12,05,7.50
2020,01,30,12,06,7.60
2020,01,30,12,07,7.60
2020,01,30,12,08,7.60
2020,01,30,12,09,7.70
2020,01,30,12,10,7.70
2020,01,30,12,11,7.70
2020,01,30,12,12,7.70
2020,01,30,12,13,7.70
2020,01,30,12,14,7.70
2020,01,30,12,15,7.70
2020,01,30,12,16,7.80
2020,01,30,12,17,7.80
2020,01,30,12,18,7.80
2020,01,30,12,19,7.70
2020,01,30,12,20,7.70
2020,01,30,12,21,7.70
2020,01,30,12,22,7.70
2020,01,30,12,23,7.70
2020,01,30,12,24,7.70
2020,01,30,12,25,7.70
2020,01,30,12,26,7.70
2020,01,30,12,27,7.70
2020,01,30,12,28,7.70
2020,01,30,12,29,7.70
2020,01,30,12,30,7.70
2020,01,30,12,31,7.70
2020,01,30,12,32,7.70
2020,01,30,12,33,7.70
2020,01,30,12,34,7.70
2020,01,30,12,35,7.70
2020,01,30,12,36,7.60
2020,01,30,12,37,7.60
2020,01,30,12,38,7.60
2020,01,30,12,39,7.60
2020,01,30,12,40,7.60
2020,01,30,12,41,7.60
2020,01,30,12,42,7.60
2020,01,30,12,43,7.60
2020,01,30,12,44,7.60
2020,01,30,12,45,7.60
2020,01,30,12,46,7.60
2020,01,30,12,47,7.60
2020,01,30,12,48,7.60
2020,01,30,12,49,7.60
2020,01,30,12,50,7.50
2020,01,30,12,51,7.60
2020,01,30,12,52,7.60
2020,01,30,12,53,7.60
2020,01,30,12,54,7.60
2020,01,30,12,55,7.60
2020,01,30,12,56,7.60
2020,01,30,12,57,7.60
2020,01,30,12,58,7.60
2020,01,30,12,59,7.60
2020,01,30,13,00,7.60
2020,01,30,13,01,7.60
2020,01,30,13,02,7.60
2020,01,30,13,03,7.60
2020,01,30,13,04,7.60
2020,01,30,13,05,7.60
2020,01,30,13,06,7.50
2020,01,30,13,07,7.50
2020,01,30,13,08,7.60
2020,01,30,13,09,7.60
2020,01,30,13,10,7.60
2020,01,30,13,11,7.60
2020,01,30,13,12,7.60
2020,01,30,13,13,7.60
2020,01,30,13,14,7.60
2020,01,30,13,15,7.60
2020,01,30,13,16,7.60
2020,01,30,13,17,7.60
2020,01,30,13,18,7.60
2020,01,30,13,19,7.70
2020,01,30,13,20,7.70
2020,01,30,13,21,7.70
2020,01,30,13,22,7.60
2020,01,30,13,23,7.70
2020,01,30,13,24,7.70
2020,01,30,13,25,7.70
2020,01,30,13,26,7.70
2020,01,30,13,27,7.70
2020,01,30,13,28,7.70
2020,01,30,13,29,7.70
2020,01,30,13,30,7.70
2020,01,30,13,31,7.60
2020,01,30,13,32,7.70
2020,01,30,13,33,7.70
2020,01,30,13,34,7.60
2020,01,30,13,35,7.60
2020,01,30,13,36,7.60
2020,01,30,13,37,7.60
2020,01,30,13,38,7.60
2020,01,30,13,39,7.60
2020,01,30,13,40,7.60
2020,01,30,13,41,7.50
2020,01,30,13,42,7.50
2020,01,30,13,43,7.50
2020,01,30,13,44,7.50
2020,01,30,13,45,7.50
2020,01,30,13,46,7.50
2020,01,30,13,47,7.50
2020,01,30,13,48,7.50
2020,01,30,13,49,7.50
2020,01,30,13,50,7.50
2020,01,30,13,51,7.50
2020,01,30,13,52,7.50
2020,01,30,13,53,7.40
2020,01,30,13,54,7.40
2020,01,30,13,55,7.40
2020,01,30,13,56,7.40
2020,01,30,13,57,7.40
2020,01,30,13,58,7.40
2020,01,30,13,59,7.40
2020,01,30,14,00,7.40
2020,01,30,14,01,7.40
2020,01,30,14,02,7.40
2020,01,30,14,03,7.30
2020,01,30,14,04,7.30
2020,01,30,14,05,7.30
2020,01,30,14,06,7.30
2020,01,30,14,07,7.30
2020,01,30,14,08,7.30
2020,01,30,14,09,7.20
2020,01,30,14,10,7.20
2020,01,30,14,11,7.20
2020,01,30,14,12,7.20
2020,01,30,14,13,7.20
2020,01,30,14,14,7.20
2020,01,30,14,15,7.20
2020,01,30,14,16,7.20
2020,01,30,14,17,7.20
2020,01,30,14,18,7.20
2020,01,30,14,19,7.20
2020,01,30,14,20,7.20
2020,01,30,14,21,7.20
2020,01,30,14,22,7.20
2020,01,30,14,23,7.20
2020,01,30,14,24,7.20
2020,01,30,14,25,7.20
2020,01,30,14,26,7.20
2020,01,30,14,27,7.20
2020,01,30,14,28,7.20
2020,01,30,14,29,7.20
2020,01,30,14,30,7.20
2020,01,30,14,31,7.20
2020,01,30,14,32,7.20
2020,01,30,14,33,7.20
2020,01,30,14,34,7.20
2020,01,30,14,35,7.20
2020,01,30,14,36,7.20
2020,01,30,14,37,7.20
2020,01,30,14,38,7.20
2020,01,30,14,39,7.20
2020,01,30,14,40,7.20
2020,01,30,14,41,7.20
2020,01,30,14,42,7.20
2020,01,30,14,43,7.20
2020,01,30,14,44,7.20
2020,01,30,14,45,7.20
2020,01,30,14,46,7.20
2020,01,30,14,47,7.20
2020,01,30,14,48,7.20
2020,01,30,14,49,7.20
2020,01,30,14,50,7.20
2020,01,30,14,51,7.20
2020,01,30,14,52,7.20
2020,01,30,14,53,7.20
2020,01,30,14,54,7.20
2020,01,30,14,55,7.20
2020,01,30,14,56,7.20
2020,01,30,14,57,7.20
2020,01,30,14,58,7.20
2020,01,30,14,59,7.20
2020,01,30,15,00,7.20
2020,01,30,15,01,7.20
2020,01,30,15,02,7.10
2020,01,30,15,03,7.10
2020,01,30,15,04,7.10
2020,01,30,15,05,7.10
2020,01,30,15,06,7.10
2020,01,30,15,07,7.10
2020,01,30,15,08,7.10
2020,01,30,15,09,7.10
2020,01,30,15,10,7.10
2020,01,30,15,11,7.10
2020,01,30,15,12,7.10
2020,01,30,15,13,7.10
2020,01,30,15,14,7.10
2020,01,30,15,15,7.10
2020,01,30,15,16,7.10
2020,01,30,15,17,7.10
2020,01,30,15,18,7.10
2020,01,30,15,19,7.10
2020,01,30,15,20,7.10
2020,01,30,15,21,7.10
2020,01,30,15,22,7.10
2020,01,30,15,23,7.10
2020,01,30,15,24,7.10
2020,01,30,15,25,7.20
2020,01,30,15,26,7.20
2020,01,30,15,27,7.10
2020,01,30,15,28,7.10
2020,01,30,15,29,7.10
2020,01,30,15,30,7.10
2020,01,30,15,31,7.10
2020,01,30,15,32,7.10
2020,01,30,15,33,7.10
2020,01,30,15,34,7.10
2020,01,30,15,35,7.10
2020,01,30,15,36,7.10
2020,01,30,15,37,7.10
2020,01,30,15,38,7.00
2020,01,30,15,39,7.00
2020,01,30,15,40,7.00
2020,01,30,15,41,7.00
2020,01,30,15,42,7.00
2020,01,30,15,43,7.00
2020,01,30,15,44,7.00
2020,01,30,15,45,7.00
2020,01,30,15,46,7.00
2020,01,30,15,47,7.00
2020,01,30,15,48,7.00
2020,01,30,15,49,7.00
2020,01,30,15,50,7.00
2020,01,30,15,51,6.90
2020,01,30,15,52,6.90
2020,01,30,15,53,6.90
2020,01,30,15,54,6.90
2020,01,30,15,55,6.90
2020,01,30,15,56,6.90
2020,01,30,15,57,6.90
2020,01,30,15,58,6.90
2020,01,30,15,59,6.90
2020,01,30,16,00,6.90
2020,01,30,16,01,6.90
2020,01,30,16,02,6.90
2020,01,30,16,03,6.90
2020,01,30,16,04,6.90
2020,01,30,16,05,6.90
2020,01,30,16,06,7.00
2020,01,30,16,07,7.00
2020,01,30,16,08,7.00
2020,01,30,16,09,7.00
2020,01,30,16,10,7.00
2020,01,30,16,11,7.00
2020,01,30,16,12,7.00
2020,01,30,16,13,7.00
2020,01,30,16,14,6.90
2020,01,30,16,15,6.90
2020,01,30,16,16,6.90
2020,01,30,16,17,6.90
2020,01,30,16,18,6.90
2020,01,30,16,19,6.80
2020,01,30,16,20,6.80
2020,01,30,16,21,6.80
2020,01,30,16,22,6.80
2020,01,30,16,23,6.80
2020,01,30,16,24,6.80
2020,01,30,16,25,6.80
2020,01,30,16,26,6.80
2020,01,30,16,27,6.80
2020,01,30,16,28,6.80
2020,01,30,16,29,6.80
2020,01,30,16,30,6.80
2020,01,30,16,31,6.80
2020,01,30,16,32,6.80
2020,01,30,16,33,6.80
2020,01,30,16,34,6.80
2020,01,30,16,35,6.80
2020,01,30,16,36,6.80
2020,01,30,16,37,6.80
2020,01,30,16,38,6.80
2020,01,30,16,39,6.80
2020,01,30,16,40,6.80
2020,01,30,16,41,6.80
2020,01,30,16,42,6.80
2020,01,30,16,43,6.80
2020,01,30,16,44,6.80
2020,01,30,16,45,6.80
2020,01,30,16,46,6.80
2020,01,30,16,47,6.80
2020,01,30,16,48,6.80
2020,01,30,16,49,6.80
2020,01,30,16,50,6.80
2020,01,30,16,51,6.80
2020,01,30,16,52,6.80
2020,01,30,16,53,6.90
2020,01,30,16,54,6.90
2020,01,30,16,55,6.90
2020,01,30,16,56,6.90
2020,01,30,16,57,6.90
2020,01,30,16,58,6.90
2020,01,30,16,59,6.80
2020,01,30,17,00,6.80
2020,01,30,17,01,6.80
2020,01,30,17,02,6.80
2020,01,30,17,03,6.80
2020,01,30,17,04,6.80
2020,01,30,17,05,6.80
2020,01,30,17,06,6.80
2020,01,30,17,07,6.80
2020,01,30,17,08,6.80
2020,01,30,17,09,6.80
2020,01,30,17,10,6.80
2020,01,30,17,11,6.80
2020,01,30,17,12,6.80
2020,01,30,17,13,6.90
2020,01,30,17,14,6.90
2020,01,30,17,15,6.90
2020,01,30,17,16,6.90
2020,01,30,17,17,6.90
2020,01,30,17,18,6.90
2020,01,30,17,19,6.90
2020,01,30,17,20,6.90
2020,01,30,17,21,6.90
2020,01,30,17,22,6.90
2020,01,30,17,23,6.90
2020,01,30,17,24,6.90
2020,01,30,17,25,6.90
2020,01,30,17,26,6.90
2020,01,30,17,27,6.90
2020,01,30,17,28,6.90
2020,01,30,17,29,6.90
2020,01,30,17,30,6.90
2020,01,30,17,31,6.90
2020,01,30,17,32,6.90
2020,01,30,17,33,6.90
2020,01,30,17,34,6.90
2020,01,30,17,35,6.90
2020,01,30,17,36,6.90
2020,01,30,17,37,6.90
2020,01,30,17,38,6.90
2020,01,30,17,39,6.90
2020,01,30,17,40,6.90
2020,01,30,17,41,6.90
2020,01,30,17,42,6.90
2020,01,30,17,43,6.90
2020,01,30,17,44,6.90
2020,01,30,17,45,6.90
2020,01,30,17,46,6.90
2020,01,30,17,47,6.90
2020,01,30,17,48,6.90
2020,01,30,17,49,7.00
2020,01,30,17,50,7.00
2020,01,30,17,51,7.00
2020,01,30,17,52,7.00
2020,01,30,17,53,7.00
2020,01,30,17,54,7.00
2020,01,30,17,55,7.00
2020,01,30,17,56,7.10
2020,01,30,17,57,7.10
2020,01,30,17,58,7.10
2020,01,30,17,59,7.10
2020,01,30,18,00,7.10
2020,01,30,18,01,7.10
2020,01,30,18,02,7.10
2020,01,30,18,03,7.10
2020,01,30,18,04,7.10
2020,01,30,18,05,7.10
2020,01,30,18,06,7.10